Regional Weather Roundup
Issued by NWS

Home | Current Version | Previous Version | Text Only | Print | Product List | Glossary Off
Versions: 1 2 3 4 5 6 7 8 9 10 11 12 13 14 15 16 17 18 19 20 21 22 23 24 25 26 27 28 29 30 31 32 33 34 35 36 37 38 39 40 41 42 43 44 45 46 47 48 49 50

000
ASUS44 KMEG 171100
RWRTN
TENNESSEE HOURLY STATE WEATHER ROUNDUP
NATIONAL WEATHER SERVICE MEMPHIS TN
500 AM CST TUE JAN 17 2017

TNZ002-004-019-021-049-052-054-088>092-171200-
WEST TENNESSEE

CITY           SKY/WX    TMP DP  RH WIND       PRES   REMARKS
MEMPHIS INTL   LGT RAIN  56  56 100 W8        30.04R FOG
NWS MEMPHIS      N/A     56 N/A N/A MISG        N/A
JACKSON        LGT RAIN  61  32  33 W8        30.00R
DYERSBURG      CLOUDY    59  54  82 W13       29.99R
UNION CITY     CLOUDY    59  59 100 CALM      29.97R
PARIS          CLOUDY    61  59  94 W10       29.97R
$$

TNZ008-025-027-028-033-062-065-066-171200-
NORTH MIDDLE TENNESSEE

CITY           SKY/WX    TMP DP  RH WIND       PRES   REMARKS
NASHVILLE      CLOUDY    65  59  81 S21       30.01F
CLARKSVILLE    CLOUDY    62  59  90 SW10      29.95F
SMYRNA         CLOUDY    64  60  87 S9        30.03S
CROSSVILLE     CLOUDY    58  52  80 S9G22     30.09S
$$

TNZ061-075-076-078-094-096-097-171200-
SOUTH MIDDLE TENNESSEE

CITY           SKY/WX    TMP DP  RH WIND       PRES   REMARKS
TULLAHOMA      MOCLDY    61  57  88 S10       30.09R
WINCHESTER     CLOUDY    64  55  72 S8        30.10S
COLUMBIA       CLOUDY   N/A N/A N/A S15       30.01F
SHELBYVILLE    CLOUDY    64  61  88 S14       30.07S
$$

TNZ017-018-042-046-047-171200-
NORTHEAST TENNESSEE

CITY           SKY/WX    TMP DP  RH WIND       PRES   REMARKS
TRI CITIES     LGT RAIN  54  49  83 CALM      30.12F
$$

TNZ012-013-036-069-073-074-171200-
CENTRAL EAST TENNESSEE

CITY           SKY/WX    TMP DP  RH WIND       PRES   REMARKS
KNOXVILLE      CLOUDY    63  52  67 SW16G23   30.10F
OAK RIDGE      CLOUDY    57  52  83 W3        30.13F
GATLINBURG     MOCLDY    50  48  93 CALM      30.10F
$$

TNZ083-085-099-171200-
SOUTHEAST TENNESSEE

CITY           SKY/WX    TMP DP  RH WIND       PRES   REMARKS
CHATTANOOGA    MOCLDY    57  53  86 S6        30.15S
$$

SKY/WX REPORTED AS FAIR MEANS FEW OR NO CLOUDS BELOW
12 THOUSAND FEET.




USA.gov is the U.S. government's official web portal to all federal, state and local government web resources and services.